Weather in Monino

Russia / Pskov Oblast     56°37′47″N   29°34′37″E
temp.,
°C
wind,
m/s
gust,
m/s
humid.,
%
clouds,
%
prec.,
mm/h
press.,
hPa
HPBL,
m
18 january, tue
tue1800:00−6nnw71780100 0.2 10001524
03:00−6nnw61689100 0.3 10041622
06:00−6nnw61487100 0.4 10081354
09:00−6nnw61482100 0.4 10121058
12:00−6nnw61384100 0.0 10151086
15:00−5nnw5128378 0.1 10181092
18:00−7nw4129395 0.0 1021419
21:00−8wnw3896100 0.0 1022200
19 january, wed
wed1900:00−9w3895100 0.0 1023158
03:00−6wsw31196100 0.1 1021339
06:00−4sw4129296 0.3 1018442
09:00−4sw5129271 0.3 1016429
12:00−3sw41095100 0.0 1014402
15:00−2sw41196100 0.1 1011401
18:00−1sw51297100 0.0 1009543
21:000sw61397100 0.1 1006531
20 january, thu
thu2000:00
03:000ssw51494100 0.0 1002439
06:00−1ssw61691100 0.0 998501
09:00
12:00−1ssw61296100 0.3 994930
15:00−1ssw61191100 1.6 9941025
18:00−1ssw61288100 0.1 993984
21:00−2ssw5128781 0.1 994908
21 january, fri
fri2100:00−3s51392100 0.0 993670
03:00−3s4119496 0.2 993771
06:00−5s4109499 0.3 994538
09:00−8sse41096100 0.3 995306
12:00−6se399492 0.1 996347
15:00−6e489396 0.1 997428
18:00−6e499483 0.1 999450
21:00−7ne2798100 0.2 1002177
22 january, sat
sat2200:00−7nne2598100 0.1 1004119
03:00−6nne1497100 0.3 1006130
06:00−8ne269882 0.3 1009111
09:00−8nne3895100 0.4 1012258
12:00−8nne3795100 0.1 1015277
15:00−7n3691100 0.1 1017360
18:00−8n279692 0.2 1019308
21:00−11n249891 0.3 102169